DKH1882 ZGSZ-ZSSS

Flight info

Callsign DKH1882
Flight time 1h 50m
Altitude 33100
Route IDUMA W41 ISLOM G471 XEBUL H22 UPNUG W76 AREPI B221 SHZ G204 JTN
Aircraft A321/M-SDE2E3GHIJ3J4J5LM1ORWXY/LB1D1

Departure

Time 2026-04-26 03:07
Airport Shenzhen Bao'an International Airport (ZGSZ)

Arrival

Time 2026-04-26 04:57
Airport Shanghai Hongqiao International Airport (ZSSS)
Time Latitude Longitude Altitude Speed Heading
2026-04-26 02:45 22.64201 113.80182 16 ft 0 kts 31°
2026-04-26 02:56 22.64189 113.80175 15 ft 4 kts 31°
2026-04-26 02:56 22.64166 113.80159 16 ft 4 kts 31°
2026-04-26 02:56 22.64148 113.80147 15 ft 3 kts 32°
2026-04-26 02:57 22.64128 113.80129 15 ft 4 kts 56°
2026-04-26 02:57 22.64116 113.80103 15 ft 4 kts 71°
2026-04-26 02:57 22.64109 113.80083 15 ft 0 kts 69°
2026-04-26 03:01 22.64110 113.80085 15 ft 2 kts 69°
2026-04-26 03:01 22.64115 113.80137 15 ft 12 kts 101°
2026-04-26 03:01 22.64064 113.80229 17 ft 14 kts 124°
2026-04-26 03:01 22.64046 113.80324 15 ft 13 kts 69°
2026-04-26 03:02 22.64086 113.80412 17 ft 12 kts 64°
2026-04-26 03:02 22.64123 113.80492 15 ft 12 kts 63°
2026-04-26 03:02 22.64167 113.80586 15 ft 19 kts 63°
2026-04-26 03:02 22.64192 113.80639 15 ft 0 kts 63°
2026-04-26 03:03 22.64193 113.80640 15 ft 1 kts 63°
2026-04-26 03:03 22.64214 113.80667 16 ft 9 kts 32°
2026-04-26 03:03 22.64293 113.80644 15 ft 14 kts 333°
2026-04-26 03:03 22.64399 113.80585 16 ft 19 kts 333°
2026-04-26 03:04 22.64528 113.80515 15 ft 21 kts 333°
2026-04-26 03:04 22.64655 113.80444 15 ft 20 kts 333°
2026-04-26 03:04 22.64783 113.80374 15 ft 20 kts 333°
2026-04-26 03:04 22.64910 113.80305 15 ft 22 kts 333°
2026-04-26 03:05 22.65056 113.80225 17 ft 23 kts 332°
2026-04-26 03:05 22.65176 113.80165 15 ft 12 kts 359°
2026-04-26 03:05 22.65229 113.80224 17 ft 11 kts 63°
2026-04-26 03:05 22.65254 113.80315 15 ft 17 kts 103°
2026-04-26 03:06 22.65159 113.80385 15 ft 20 kts 153°
2026-04-26 03:06 22.64892 113.80531 17 ft 76 kts 153°
2026-04-26 03:06 22.64238 113.80891 16 ft 132 kts 153°
2026-04-26 03:06 22.63288 113.81415 54 ft 170 kts 154°
2026-04-26 03:07 22.62221 113.81998 596 ft 172 kts 154°
2026-04-26 03:07 22.61148 113.82583 1108 ft 179 kts 154°
2026-04-26 03:07 22.59976 113.83224 1288 ft 199 kts 154°
2026-04-26 03:07 22.58669 113.83938 1416 ft 222 kts 154°
2026-04-26 03:08 22.57232 113.84722 1767 ft 236 kts 154°
2026-04-26 03:08 22.55758 113.85533 2376 ft 239 kts 154°
2026-04-26 03:08 22.54270 113.86347 3036 ft 241 kts 153°
2026-04-26 03:08 22.52773 113.87164 3888 ft 241 kts 153°
2026-04-26 03:09 22.51292 113.88055 4621 ft 246 kts 140°
2026-04-26 03:09 22.50337 113.89574 5299 ft 251 kts 105°
2026-04-26 03:09 22.50196 113.91520 5700 ft 270 kts 79°
2026-04-26 03:09 22.50913 113.93395 6341 ft 276 kts 52°
2026-04-26 03:10 22.52404 113.94689 7050 ft 279 kts 22°
2026-04-26 03:10 22.54312 113.95053 7755 ft 281 kts
2026-04-26 03:10 22.56281 113.95066 8449 ft 285 kts 359°
2026-04-26 03:10 22.58275 113.95063 9114 ft 288 kts 359°
2026-04-26 03:11 22.60296 113.95057 9743 ft 292 kts 359°
2026-04-26 03:11 22.62345 113.95053 10226 ft 302 kts 359°
2026-04-26 03:11 22.64526 113.95053 10359 ft 323 kts 359°
2026-04-26 03:11 22.66606 113.95056 10474 ft 342 kts 359°
2026-04-26 03:12 22.69045 113.95064 10599 ft 360 kts 359°
2026-04-26 03:12 22.71608 113.95075 10820 ft 374 kts 359°
2026-04-26 03:12 22.74230 113.95093 11330 ft 379 kts
2026-04-26 03:12 22.76816 113.95552 11877 ft 384 kts 17°
2026-04-26 03:13 22.79358 113.96572 12474 ft 387 kts 19°
2026-04-26 03:13 22.81877 113.97622 13025 ft 389 kts 20°
2026-04-26 03:13 22.84412 113.98693 13560 ft 392 kts 20°
2026-04-26 03:13 22.86959 113.99772 14073 ft 395 kts 20°
2026-04-26 03:14 22.89532 114.00861 14589 ft 398 kts 20°
2026-04-26 03:14 22.92117 114.01951 14804 ft 399 kts 20°
2026-04-26 03:14 22.94708 114.03043 14847 ft 399 kts 19°
2026-04-26 03:14 22.97293 114.04128 14857 ft 400 kts 20°
2026-04-26 03:15 22.99909 114.05225 15176 ft 405 kts 19°
2026-04-26 03:15 23.02547 114.06331 15666 ft 408 kts 20°
2026-04-26 03:15 23.05198 114.07444 16122 ft 410 kts 20°
2026-04-26 03:15 23.07874 114.08568 16564 ft 413 kts 20°
2026-04-26 03:16 23.10567 114.09702 16991 ft 417 kts 20°
2026-04-26 03:16 23.13282 114.10846 17421 ft 420 kts 20°
2026-04-26 03:16 23.16011 114.11998 17834 ft 423 kts 20°
2026-04-26 03:16 23.18767 114.13161 18254 ft 426 kts 20°
2026-04-26 03:17 23.21547 114.14332 18662 ft 429 kts 20°
2026-04-26 03:17 23.24332 114.15509 19066 ft 431 kts 19°
2026-04-26 03:17 23.27144 114.16696 19467 ft 434 kts 19°
2026-04-26 03:17 23.29966 114.17888 19863 ft 436 kts 19°
2026-04-26 03:18 23.32799 114.19086 20260 ft 439 kts 19°
2026-04-26 03:18 23.35654 114.20292 20666 ft 441 kts 19°
2026-04-26 03:18 23.38527 114.21507 21053 ft 444 kts 19°
2026-04-26 03:18 23.41412 114.22726 21412 ft 446 kts 19°
2026-04-26 03:19 23.44315 114.23950 21769 ft 449 kts 19°
2026-04-26 03:19 23.47197 114.25168 22116 ft 451 kts 18°
2026-04-26 03:19 23.50126 114.26410 22504 ft 452 kts 18°
2026-04-26 03:19 23.53064 114.27661 22861 ft 455 kts 18°
2026-04-26 03:20 23.56017 114.28917 23195 ft 457 kts 18°
2026-04-26 03:20 23.58983 114.30178 23516 ft 459 kts 18°
2026-04-26 03:20 23.61969 114.31445 23849 ft 461 kts 18°
2026-04-26 03:20 23.64890 114.32929 24154 ft 467 kts 26°
2026-04-26 03:21 23.67597 114.34910 24458 ft 472 kts 33°
2026-04-26 03:21 23.70223 114.37078 24782 ft 474 kts 33°
2026-04-26 03:21 23.72857 114.39248 25094 ft 475 kts 33°
2026-04-26 03:21 23.75498 114.41419 25397 ft 476 kts 33°
2026-04-26 03:22 23.78151 114.43596 25709 ft 478 kts 33°
2026-04-26 03:22 23.80818 114.45784 26032 ft 480 kts 33°
2026-04-26 03:22 23.83483 114.47969 26361 ft 481 kts 33°
2026-04-26 03:22 23.86170 114.50174 26659 ft 482 kts 33°
2026-04-26 03:23 23.88856 114.52380 26966 ft 483 kts 33°
2026-04-26 03:23 23.91534 114.54581 27366 ft 481 kts 33°
2026-04-26 03:23 23.94198 114.56774 27771 ft 479 kts 33°
2026-04-26 03:23 23.96854 114.58967 28186 ft 477 kts 33°
2026-04-26 03:24 23.99496 114.61149 28597 ft 475 kts 32°
2026-04-26 03:24 24.02129 114.63324 29020 ft 473 kts 32°
2026-04-26 03:24 24.04749 114.65488 29425 ft 471 kts 32°
2026-04-26 03:24 24.07359 114.67643 29827 ft 468 kts 32°
2026-04-26 03:25 24.09957 114.69788 30200 ft 467 kts 32°
2026-04-26 03:25 24.12540 114.71919 30563 ft 465 kts 31°
2026-04-26 03:25 24.14250 114.73330 30777 ft 465 kts 31°
2026-04-26 03:25 24.16831 114.75464 31095 ft 464 kts 31°
2026-04-26 03:26 24.20247 114.78289 31510 ft 464 kts 31°
2026-04-26 03:26 24.22821 114.80420 31825 ft 464 kts 31°
2026-04-26 03:26 24.24559 114.81861 32043 ft 463 kts 31°
2026-04-26 03:26 24.27105 114.84029 32353 ft 466 kts 35°
2026-04-26 03:27 24.30086 114.87463 32774 ft 475 kts 46°
2026-04-26 03:27 24.31444 114.89405 32961 ft 475 kts 46°
2026-04-26 03:27 24.34110 114.93218 33144 ft 475 kts 46°
2026-04-26 03:27 24.35468 114.95157 33152 ft 474 kts 46°
2026-04-26 03:28 24.39482 115.00873 33150 ft 473 kts 46°
2026-04-26 03:28 24.43499 115.06583 33152 ft 472 kts 46°
2026-04-26 03:29 24.47469 115.12252 33150 ft 472 kts 46°
2026-04-26 03:29 24.51458 115.17980 33152 ft 472 kts 46°
2026-04-26 03:30 24.55447 115.23709 33155 ft 472 kts 46°
2026-04-26 03:30 24.59443 115.29446 33151 ft 472 kts 45°
2026-04-26 03:31 24.63427 115.35175 33171 ft 472 kts 45°
2026-04-26 03:31 24.67414 115.40909 33167 ft 471 kts 45°
2026-04-26 03:32 24.71417 115.46608 33151 ft 471 kts 45°
2026-04-26 03:32 24.75440 115.52281 33169 ft 471 kts 45°
2026-04-26 03:33 24.79461 115.57973 33163 ft 471 kts 45°
2026-04-26 03:33 24.83461 115.63675 33149 ft 471 kts 45°
2026-04-26 03:34 24.87456 115.69382 33171 ft 471 kts 45°
2026-04-26 03:34 24.91456 115.75097 33169 ft 471 kts 45°
2026-04-26 03:35 24.95462 115.80822 33173 ft 471 kts 45°
2026-04-26 03:35 24.99453 115.86528 33159 ft 470 kts 45°
2026-04-26 03:36 25.03440 115.92239 33149 ft 470 kts 45°
2026-04-26 03:36 25.07421 115.97952 33163 ft 470 kts 45°
2026-04-26 03:37 25.11406 116.03669 33170 ft 470 kts 45°
2026-04-26 03:37 25.15376 116.09386 33161 ft 469 kts 45°
2026-04-26 03:38 25.19348 116.15108 33160 ft 469 kts 45°
2026-04-26 03:38 25.23313 116.20818 33152 ft 468 kts 45°
2026-04-26 03:39 25.27276 116.26535 33165 ft 468 kts 45°
2026-04-26 03:39 25.31219 116.32244 33143 ft 467 kts 45°
2026-04-26 03:40 25.35143 116.37915 33149 ft 468 kts 45°
2026-04-26 03:40 25.39091 116.43629 33156 ft 468 kts 45°
2026-04-26 03:41 25.43042 116.49361 33172 ft 468 kts 45°
2026-04-26 03:41 25.46981 116.55098 33153 ft 468 kts 45°
2026-04-26 03:42 25.50919 116.60839 33153 ft 468 kts 45°
2026-04-26 03:42 25.54860 116.66577 33151 ft 468 kts 45°
2026-04-26 03:43 25.58826 116.72280 33148 ft 466 kts 43°
2026-04-26 03:43 25.62987 116.77768 33148 ft 464 kts 41°
2026-04-26 03:44 25.67225 116.83172 33151 ft 465 kts 41°
2026-04-26 03:44 25.71432 116.88630 33144 ft 466 kts 42°
2026-04-26 03:45 25.75596 116.94132 33148 ft 466 kts 43°
2026-04-26 03:45 25.79744 116.99645 33149 ft 465 kts 42°
2026-04-26 03:46 25.83909 117.05163 33148 ft 466 kts 43°
2026-04-26 03:47 25.90171 117.13448 33139 ft 467 kts 42°
2026-04-26 03:47 25.94351 117.18978 33144 ft 468 kts 43°
2026-04-26 03:48 25.98542 117.24514 33144 ft 468 kts 42°
2026-04-26 03:48 26.02752 117.30045 33144 ft 469 kts 43°
2026-04-26 03:49 26.06965 117.35579 33143 ft 469 kts 43°
2026-04-26 03:49 26.11168 117.41134 33134 ft 469 kts 43°
2026-04-26 03:50 26.15367 117.46701 33143 ft 470 kts 43°
2026-04-26 03:50 26.19571 117.52284 33145 ft 470 kts 43°
2026-04-26 03:51 26.23777 117.57865 33142 ft 470 kts 43°
2026-04-26 03:51 26.27981 117.63441 33144 ft 470 kts 43°
2026-04-26 03:52 26.32159 117.68994 33137 ft 470 kts 43°
2026-04-26 03:52 26.36364 117.74583 33133 ft 471 kts 43°
2026-04-26 03:53 26.40569 117.80179 33135 ft 471 kts 43°
2026-04-26 03:53 26.44782 117.85766 33135 ft 471 kts 43°
2026-04-26 03:54 26.49001 117.91363 33135 ft 471 kts 43°
2026-04-26 03:54 26.53205 117.96975 33139 ft 473 kts 45°
2026-04-26 03:55 26.56606 118.03378 33147 ft 484 kts 57°
2026-04-26 03:55 26.59685 118.10063 33152 ft 484 kts 56°
2026-04-26 03:56 26.62778 118.16741 33151 ft 483 kts 56°
2026-04-26 03:56 26.65863 118.23409 33148 ft 482 kts 57°
2026-04-26 03:57 26.68936 118.30074 33148 ft 483 kts 56°
2026-04-26 03:57 26.72002 118.36751 33141 ft 483 kts 57°
2026-04-26 03:58 26.75061 118.43440 33144 ft 482 kts 56°
2026-04-26 03:58 26.78125 118.50114 33143 ft 483 kts 57°
2026-04-26 03:59 26.81192 118.56810 33141 ft 483 kts 56°
2026-04-26 03:59 26.84246 118.63504 33152 ft 483 kts 57°
2026-04-26 04:00 26.87300 118.70201 33149 ft 483 kts 57°
2026-04-26 04:00 26.90353 118.76911 33152 ft 483 kts 57°
2026-04-26 04:01 26.93399 118.83610 33151 ft 483 kts 57°
2026-04-26 04:01 26.96440 118.90315 33165 ft 482 kts 57°
2026-04-26 04:02 26.99471 118.97016 33152 ft 482 kts 57°
2026-04-26 04:02 27.02502 119.03709 33151 ft 481 kts 57°
2026-04-26 04:03 27.05523 119.10399 33145 ft 480 kts 57°
2026-04-26 04:03 27.08542 119.17088 33151 ft 480 kts 57°
2026-04-26 04:04 27.11581 119.23751 33162 ft 480 kts 57°
2026-04-26 04:04 27.14627 119.30413 33149 ft 480 kts 57°
2026-04-26 04:05 27.17658 119.37079 33151 ft 479 kts 57°
2026-04-26 04:05 27.20678 119.43748 33149 ft 479 kts 57°
2026-04-26 04:06 27.23699 119.50413 33149 ft 478 kts 57°
2026-04-26 04:06 27.26713 119.57070 33148 ft 478 kts 57°
2026-04-26 04:07 27.29752 119.63698 33152 ft 477 kts 56°
2026-04-26 04:07 27.32818 119.70302 33153 ft 476 kts 56°
2026-04-26 04:08 27.35358 119.75784 33145 ft 476 kts 56°
2026-04-26 04:08 27.38895 119.83523 33137 ft 475 kts 56°
2026-04-26 04:09 27.41909 119.90140 33143 ft 475 kts 57°
2026-04-26 04:09 27.44904 119.96708 33142 ft 474 kts 56°
2026-04-26 04:10 27.47919 120.03314 33139 ft 474 kts 56°
2026-04-26 04:10 27.50935 120.09908 33147 ft 473 kts 56°
2026-04-26 04:11 27.53939 120.16497 33141 ft 473 kts 56°
2026-04-26 04:11 27.56453 120.22024 33144 ft 473 kts 56°
2026-04-26 04:12 27.59930 120.29696 33145 ft 473 kts 57°
2026-04-26 04:12 27.62680 120.34950 33137 ft 462 kts 45°
2026-04-26 04:13 27.67232 120.39900 33130 ft 445 kts 28°
2026-04-26 04:13 27.72391 120.43620 33127 ft 443 kts 25°
2026-04-26 04:14 27.77588 120.47367 33126 ft 443 kts 26°
2026-04-26 04:14 27.82783 120.51135 33118 ft 444 kts 26°
2026-04-26 04:15 27.87982 120.54897 33113 ft 444 kts 26°
2026-04-26 04:15 27.93179 120.58654 33110 ft 444 kts 26°
2026-04-26 04:16 27.98380 120.62420 33105 ft 444 kts 26°
2026-04-26 04:16 28.03863 120.65320 33106 ft 429 kts
2026-04-26 04:17 28.09686 120.66259 33101 ft 421 kts 360°
2026-04-26 04:17 28.15530 120.66827 33097 ft 422 kts 360°
2026-04-26 04:18 28.21373 120.67404 33098 ft 421 kts 360°
2026-04-26 04:18 28.27218 120.67983 33098 ft 421 kts 360°
2026-04-26 04:19 28.33018 120.68557 33095 ft 421 kts 360°
2026-04-26 04:19 28.38851 120.69132 33093 ft 421 kts 360°
2026-04-26 04:20 28.44691 120.69701 33093 ft 421 kts 360°
2026-04-26 04:20 28.50533 120.70276 33091 ft 421 kts 360°
2026-04-26 04:21 28.56374 120.70868 33094 ft 421 kts
2026-04-26 04:21 28.62222 120.71464 33094 ft 421 kts 360°
2026-04-26 04:22 28.68061 120.72054 33092 ft 421 kts 360°
2026-04-26 04:22 28.73902 120.72661 33086 ft 421 kts
2026-04-26 04:23 28.79735 120.73310 33085 ft 421 kts
2026-04-26 04:23 28.85572 120.73967 33083 ft 421 kts
2026-04-26 04:24 28.91403 120.74585 33084 ft 421 kts 360°
2026-04-26 04:24 28.97246 120.75149 33085 ft 421 kts 360°
2026-04-26 04:25 29.03085 120.75716 33084 ft 421 kts 360°
2026-04-26 04:25 29.08922 120.76306 33081 ft 421 kts 360°
2026-04-26 04:26 29.14754 120.76898 33080 ft 421 kts
2026-04-26 04:26 29.20584 120.77500 33026 ft 421 kts
2026-04-26 04:26 29.23499 120.77808 32771 ft 421 kts
2026-04-26 04:27 29.26422 120.78119 32520 ft 421 kts
2026-04-26 04:27 29.29342 120.78427 32270 ft 422 kts
2026-04-26 04:27 29.32264 120.78735 32021 ft 422 kts
2026-04-26 04:27 29.35197 120.79044 31773 ft 423 kts
2026-04-26 04:28 29.38132 120.79353 31520 ft 424 kts
2026-04-26 04:28 29.41068 120.79662 31270 ft 425 kts
2026-04-26 04:28 29.44014 120.79972 31021 ft 426 kts
2026-04-26 04:28 29.46968 120.80284 30771 ft 426 kts
2026-04-26 04:29 29.49919 120.80597 30519 ft 427 kts
2026-04-26 04:29 29.52836 120.80905 30275 ft 427 kts
2026-04-26 04:29 29.55800 120.81218 30024 ft 428 kts
2026-04-26 04:29 29.58756 120.81767 29771 ft 433 kts
2026-04-26 04:30 29.61644 120.82820 29521 ft 439 kts 17°
2026-04-26 04:30 29.64414 120.84355 29272 ft 446 kts 23°
2026-04-26 04:30 29.67150 120.86043 29021 ft 447 kts 23°
2026-04-26 04:30 29.69898 120.87729 28762 ft 448 kts 22°
2026-04-26 04:31 29.72656 120.89416 28510 ft 449 kts 23°
2026-04-26 04:31 29.75415 120.91104 28266 ft 450 kts 23°
2026-04-26 04:31 29.78186 120.92803 28015 ft 451 kts 23°
2026-04-26 04:31 29.80958 120.94502 27765 ft 452 kts 22°
2026-04-26 04:32 29.83735 120.96210 27513 ft 453 kts 23°
2026-04-26 04:32 29.86520 120.97925 27261 ft 454 kts 23°
2026-04-26 04:32 29.89312 120.99644 27010 ft 455 kts 23°
2026-04-26 04:32 29.92107 121.01362 26778 ft 456 kts 23°
2026-04-26 04:33 29.94907 121.03087 26540 ft 457 kts 23°
2026-04-26 04:33 29.97711 121.04819 26288 ft 458 kts 23°
2026-04-26 04:33 30.00522 121.06556 26035 ft 459 kts 23°
2026-04-26 04:33 30.03343 121.08299 25712 ft 460 kts 23°
2026-04-26 04:34 30.06170 121.10046 24561 ft 464 kts 23°
2026-04-26 04:34 30.09029 121.11816 23338 ft 470 kts 24°
2026-04-26 04:34 30.11904 121.13603 22474 ft 467 kts 24°
2026-04-26 04:34 30.14751 121.15375 21672 ft 462 kts 24°
2026-04-26 04:35 30.17566 121.17124 20880 ft 457 kts 24°
2026-04-26 04:35 30.20309 121.18829 20119 ft 451 kts 24°
2026-04-26 04:35 30.23068 121.20512 19358 ft 445 kts 21°
2026-04-26 04:35 30.25917 121.21791 18636 ft 434 kts 13°
2026-04-26 04:36 30.28833 121.22558 17944 ft 425 kts
2026-04-26 04:36 30.31748 121.22950 17258 ft 418 kts
2026-04-26 04:36 30.34619 121.23319 16605 ft 412 kts
2026-04-26 04:36 30.37453 121.23685 15962 ft 407 kts
2026-04-26 04:37 30.40246 121.24048 15326 ft 401 kts
2026-04-26 04:37 30.43004 121.24406 14715 ft 396 kts
2026-04-26 04:37 30.45712 121.24758 14116 ft 390 kts
2026-04-26 04:37 30.48389 121.25119 13533 ft 385 kts
2026-04-26 04:38 30.51036 121.25489 12964 ft 380 kts
2026-04-26 04:38 30.53647 121.25859 12387 ft 377 kts
2026-04-26 04:38 30.56240 121.26229 11822 ft 375 kts
2026-04-26 04:38 30.58817 121.26594 11332 ft 369 kts
2026-04-26 04:39 30.61311 121.26947 11221 ft 353 kts
2026-04-26 04:39 30.63701 121.27282 11089 ft 338 kts
2026-04-26 04:39 30.65987 121.27600 10963 ft 325 kts
2026-04-26 04:39 30.68187 121.27907 10836 ft 312 kts
2026-04-26 04:40 30.70302 121.28204 10711 ft 300 kts
2026-04-26 04:40 30.72340 121.28491 10488 ft 292 kts
2026-04-26 04:40 30.74348 121.28772 10223 ft 288 kts
2026-04-26 04:40 30.76333 121.29050 9980 ft 287 kts
2026-04-26 04:41 30.78312 121.29325 9857 ft 286 kts
2026-04-26 04:41 30.80285 121.29599 9729 ft 286 kts
2026-04-26 04:41 30.82264 121.29874 9597 ft 286 kts
2026-04-26 04:41 30.84236 121.30153 9489 ft 286 kts
2026-04-26 04:42 30.86212 121.30432 9219 ft 285 kts
2026-04-26 04:42 30.88159 121.30704 8851 ft 284 kts
2026-04-26 04:42 30.90089 121.30974 8470 ft 282 kts
2026-04-26 04:42 30.92013 121.31244 8102 ft 281 kts
2026-04-26 04:43 30.93945 121.31515 7787 ft 277 kts
2026-04-26 04:43 30.95861 121.31793 7676 ft 277 kts
2026-04-26 04:43 30.97777 121.32071 7517 ft 277 kts
2026-04-26 04:43 30.99681 121.32347 7382 ft 277 kts
2026-04-26 04:44 31.01601 121.32624 7234 ft 276 kts
2026-04-26 04:44 31.03499 121.32895 7081 ft 275 kts
2026-04-26 04:44 31.05398 121.33165 6932 ft 274 kts
2026-04-26 04:44 31.07293 121.33436 6779 ft 274 kts
2026-04-26 04:45 31.09179 121.33706 6640 ft 273 kts
2026-04-26 04:45 31.11029 121.33631 6481 ft 268 kts 346°
2026-04-26 04:45 31.12754 121.32882 6336 ft 265 kts 328°
2026-04-26 04:45 31.14176 121.31547 6197 ft 263 kts 310°
2026-04-26 04:46 31.15334 121.29901 6055 ft 263 kts 308°
2026-04-26 04:46 31.16489 121.28243 5898 ft 262 kts 308°
2026-04-26 04:46 31.17643 121.26592 5751 ft 262 kts 309°
2026-04-26 04:46 31.18799 121.24946 5618 ft 262 kts 310°
2026-04-26 04:47 31.20176 121.23556 5467 ft 263 kts 328°
2026-04-26 04:47 31.21861 121.22745 5315 ft 264 kts 346°
2026-04-26 04:47 31.23696 121.22532 5180 ft 266 kts 356°
2026-04-26 04:47 31.25542 121.22440 5032 ft 266 kts 355°
2026-04-26 04:48 31.29232 121.22244 4739 ft 265 kts 355°
2026-04-26 04:48 31.31067 121.22146 4599 ft 262 kts 355°
2026-04-26 04:48 31.32846 121.22053 4493 ft 249 kts 356°
2026-04-26 04:49 31.34537 121.21962 4390 ft 238 kts 355°
2026-04-26 04:49 31.36160 121.21874 4280 ft 229 kts 355°
2026-04-26 04:49 31.37710 121.21788 4204 ft 217 kts 355°
2026-04-26 04:49 31.39194 121.21703 4075 ft 210 kts 355°
2026-04-26 04:50 31.40642 121.21614 3972 ft 208 kts 355°
2026-04-26 04:50 31.42085 121.21523 3821 ft 208 kts 355°
2026-04-26 04:50 31.43514 121.21778 3682 ft 211 kts 22°
2026-04-26 04:50 31.44617 121.22899 3559 ft 216 kts 56°
2026-04-26 04:51 31.45024 121.24578 3434 ft 217 kts 89°
2026-04-26 04:51 31.44984 121.26324 3297 ft 217 kts 90°
2026-04-26 04:51 31.44946 121.28083 3156 ft 217 kts 96°
2026-04-26 04:51 31.44516 121.29763 3061 ft 216 kts 116°
2026-04-26 04:52 31.43617 121.31159 3034 ft 216 kts 137°
2026-04-26 04:52 31.42364 121.32107 3035 ft 215 kts 158°
2026-04-26 04:52 31.40913 121.32485 3035 ft 214 kts 178°
2026-04-26 04:52 31.39428 121.32566 3045 ft 214 kts 179°
2026-04-26 04:53 31.37935 121.32648 3027 ft 216 kts 179°
2026-04-26 04:53 31.36429 121.32728 2942 ft 215 kts 178°
2026-04-26 04:53 31.34977 121.32807 2688 ft 202 kts 179°
2026-04-26 04:53 31.33609 121.32881 2434 ft 192 kts 179°
2026-04-26 04:54 31.32302 121.32951 2183 ft 182 kts 178°
2026-04-26 04:54 31.31101 121.33017 1960 ft 165 kts 177°
2026-04-26 04:54 31.30024 121.33074 1745 ft 157 kts 177°
2026-04-26 04:54 31.28953 121.33131 1538 ft 148 kts 176°
2026-04-26 04:55 31.27939 121.33187 1347 ft 144 kts 176°
2026-04-26 04:55 31.26927 121.33242 1154 ft 147 kts 177°
2026-04-26 04:55 31.25903 121.33298 955 ft 147 kts 177°
2026-04-26 04:55 31.24882 121.33359 776 ft 147 kts 177°
2026-04-26 04:56 31.23865 121.33417 604 ft 146 kts 177°
2026-04-26 04:56 31.22853 121.33476 400 ft 146 kts 177°
2026-04-26 04:56 31.21842 121.33529 184 ft 145 kts 178°
2026-04-26 04:56 31.20840 121.33584 27 ft 141 kts 176°
2026-04-26 04:57 31.20022 121.33618 18 ft 87 kts 178°
2026-04-26 04:57 31.19624 121.33638 21 ft 37 kts 178°
2026-04-26 04:57 31.19388 121.33615 22 ft 27 kts 194°
2026-04-26 04:57 31.19234 121.33537 19 ft 24 kts 201°
2026-04-26 04:58 31.19130 121.33460 21 ft 14 kts 239°
2026-04-26 04:58 31.19115 121.33339 18 ft 17 kts 266°
2026-04-26 04:58 31.19109 121.33200 18 ft 17 kts 268°
2026-04-26 04:58 31.19106 121.33112 19 ft 16 kts 268°
2026-04-26 04:59 31.19101 121.32983 19 ft 16 kts 268°
2026-04-26 04:59 31.19102 121.32836 19 ft 7 kts 310°
2026-04-26 04:59 31.19160 121.32796 20 ft 9 kts 318°
2026-04-26 04:59 31.19210 121.32767 19 ft 8 kts 351°
2026-04-26 05:00 31.19246 121.32764 19 ft 8 kts 356°
2026-04-26 05:00 31.19298 121.32761 21 ft 7 kts 357°
2026-04-26 05:00 31.19322 121.32760 19 ft 0 kts 357°